Regional Weather Roundup
Issued by NWS

Home | Current Version | Previous Version | Graphics & Text | Print | Product List | Glossary On
Versions: 1 2 3 4 5 6 7 8 9 10 11 12 13 14 15 16 17 18 19 20 21 22 23 24 25 26 27 28 29 30 31 32 33 34 35 36 37 38 39 40 41 42 43 44 45 46 47 48 49 50
000
ASUS45 KBOU 070007
RWRCO

WEATHER ROUNDUP FOR COLORADO
NATIONAL WEATHER SERVICE DENVER/BOULDER CO
600 PM MDT WED MAY 06 2015

NOTE: "FAIR" INDICATES FEW OR NO CLOUDS BELOW 12000 FEET WITH NO
SIGNIFICANT WEATHER AND/OR OBSTRUCTIONS TO VISIBILITY.

COZ001>005-013-030-031-070100-
...NORTHWEST COLORADO...

CITY           SKY/WX    TMP DP  RH WIND       PRES   REMARKS
CRAIG          CLOUDY    51  43  74 N12       29.81R
HAYDEN         CLOUDY    48  41  76 N8        29.82R
MEEKER         LGT RAIN  52  42  69 S5        29.82S
MOUNT WERNER   NOT AVBL
STEAMBOAT SPGS CLOUDY    48  42  81 NW7       29.83R
WALDEN         CLOUDY    46  39  76 SW7       29.83R
$$

COZ006>008-011-070100-
...WEST CENTRAL VALLEYS...

CITY           SKY/WX    TMP DP  RH WIND       PRES   REMARKS
GRAND JUNCTION CLOUDY    59  42  53 CALM      29.76F
MONTROSE       PTSUNNY   61  43  51 NW16G22   29.82F
EAGLE          PTSUNNY   54  43  66 SW18      29.86S
RIFLE          LGT RAIN  50  44  80 W13G22    29.83R
DELTA          CLOUDY    61  49  64 NE8       29.80F
NUCLA          PTSUNNY   59  41  51 NE3       29.83F
$$

COZ017>023-064>068-070100-
...SOUTHWEST COLORADO...

CITY           SKY/WX    TMP DP  RH WIND       PRES   REMARKS
DURANGO        CLOUDY    57  35  43 W8        29.88F
CORTEZ         PTSUNNY   63  42  46 SE9       29.82S
PAGOSA SPRINGS CLOUDY    57  31  37 SW17G24   29.92R
TELLURIDE      PTSUNNY   46  33  61 CALM      29.97S
WOLF CREEK PAS NOT AVBL
$$

COZ009-010-012-014-032>034-037-058>063-070100-
...CENTRAL COLORADO...

CITY           SKY/WX    TMP DP  RH WIND       PRES   REMARKS
ASPEN          PTSUNNY   48  39  71 NW6       29.88R
BUENA VISTA    NOT AVBL
COPPER MTN     HAZE      37  32  81 W15G22    30.01R VSB 1/4
BERTHOUD PASS  CLOUDY    28  21  74 W21       30.01S THUNDER WCI  15
COTTONWOOD PAS CLOUDY    43  32  65 W18G45    29.90F
GUNNISON       MOSUNNY   54  34  47 W14G21    29.91R
KREMMLING      CLOUDY    52  37  58 SW13G20   29.85R
LEADVILLE      CLOUDY    38  35  89 N8G18     29.93R
MONARCH PASS   CLOUDY    32  32 100 MISG      30.10S
SALIDA         CLOUDY    60  32  35 W17G33    29.88S
SUNLIGHT       CLOUDY    36  36 100 CALM      30.01R
WILKERSON PASS CLOUDY    37  34  87 W7G18     29.99R
$$

COZ069>075-070100-
...SAN LUIS VALLEY/SANGRE DE CRISTO MOUNTAINS...

CITY           SKY/WX    TMP DP  RH WIND       PRES   REMARKS
ALAMOSA        PTSUNNY   58  35  42 W24G31    29.86R
LA VETA PASS   PTSUNNY  N/A N/A N/A MISG      29.94R
SAGUACHE       RAIN      46  41  81 E6        29.87F
$$

COZ035-036-038>040-070100-
...NORTHERN COLORADO FRONT RANGE...

CITY           SKY/WX    TMP DP  RH WIND       PRES   REMARKS
DENVER INTL AP CLOUDY    59  47  64 CALM      29.71R THUNDER
DMNS CITY PARK   N/A     59  47  63 S5G30     29.71S
AURORA         CLOUDY    57  50  78 SE8       29.73R
FRONT RANGE AP PTSUNNY   63  48  59 S5        29.72S THUNDER
ERIE MUNI ARPT CLOUDY    62  47  59 CALM      29.70S
BOULDER MUN AP TSTM      57  52  82 CALM      29.70S
CENTENNIAL     CLOUDY    54  49  83 SE6       29.73S
BROOMFIELD     CLOUDY    57  50  77 N3        29.73R
FORT COLLINS   CLOUDY    57  50  77 SW7       29.72R
LONGMONT       CLOUDY    60  50  71 SW7       29.72R
$$

COZ041-046-047-076>085-087-088-070100-
...PIKES PEAK/PALMER DIVIDE AND SOUTHERN FOOTHILLS...

CITY           SKY/WX    TMP DP  RH WIND       PRES   REMARKS
COLO. SPRINGS  CLOUDY    51  46  83 N9        29.76F
A. F. ACADEMY  CLOUDY    50  47  88 SE3       29.76S
ELLICOTT       LGT RAIN N/A N/A N/A E9        29.76F
FALCON         LGT RAIN  48  46  90 CALM      29.80S
FORT CARSON    MOSUNNY   52  47  85 NW6       29.74R
LIMON          LGT RAIN  57  50  77 SW6       29.72R
MONUMENT HILL  NOT AVBL
TRINIDAD       PTSUNNY   67  44  43 NW8       29.73R
$$

COZ042>045-048>051-090-091-070100-
...NORTHEAST COLORADO...

CITY           SKY/WX    TMP DP  RH WIND       PRES   REMARKS
GREELEY ARPT   CLOUDY    61  55  82 N10       29.69R
AKRON          MOSUNNY   61  55  81 W8        29.65R
BURLINGTON     PTSUNNY   68  50  52 W14       29.64F
WRAY           CLOUDY    67  56  67 SW20      29.60S
STERLING       PTSUNNY   61  54  77 NW8       29.63R THUNDER
HOLYOKE        NOT AVBL
FORT MORGAN    MOSUNNY   64  47  53 NW9       29.67R THUNDER
$$

COZ086-089-092>099-070100-
...SOUTHEAST COLORADO...

CITY           SKY/WX    TMP DP  RH WIND       PRES   REMARKS
PUEBLO         CLOUDY    57  50  77 N13       29.68R
LA JUNTA       CLOUDY    59  51  75 N10       29.67R
LAMAR          MOSUNNY   71  54  54 E7        29.59S
SPRINGFIELD      N/A     70  47  43 S9        29.63S
$$


USA.gov is the U.S. government's official web portal to all federal, state and local government web resources and services.